User: anonymous   Login
Location: Unspecified
(0.0000°N, 0.0000°E)
Time: 01:44:05
(UTC+00:00)
Language:

GALILEO 12 (269) - Orbit

View from above orbital plane
View from above orbital plane
View from above satellite
View from above satellite

Ground track
Ground track

The orbit data is extracted from the following two-line orbital elements,

1 41174U 15079A   17173.10183324 +.00000089 +00000-0 +00000-0 0  9997
2 41174 054.9216 191.5824 0006677 281.2113 078.7749 01.70473675009405
Epoch (UTC): 22 June 2017 02:26:38
Eccentricity: 0.0006677
inclination: 54.9216°
perigee height: 23202 km
apogee height: 23242 km
right ascension of ascending node: 191.5824°
argument of perigee: 281.2113°
revolutions per day: 1.70473675
mean anomaly at epoch: 78.7749°
orbit number at epoch: 940

The dashed part of the orbit path shows where the satellite is in the earth's shadow,  

DLR